Find Starlink 1304

NORAD ID: 45376 Int'l Des: 2020-019 Owner: SPXS Country: US Constellation: starlink operational
LEOCIRCULAR

リアルタイム位置

3D地球を読み込み中...

Starlink 1304について

説明を読み込み中...

次回通過

Passes for default location (London). Set your location on the main map for personalized predictions.

高度履歴

Loading altitude history...

軌道要素

1 45376U 20019S 26124.05310654 .00068441 00000-0 90387-3 0 9999
2 45376 53.0456 242.6063 0004021 301.3519 58.7099 15.57754360338579
Epoch: May 4, 2026 • Age: 15 hours

現在のステータス

高度 393.7 km
速度 7.68 km/s
衛星直下点 -3.52°S, 124.48°E
打ち上げ日 Mar 18, 2020
運用期間 6.1 years
タイプ internet

技術仕様

分類 Payload
質量 260.00 kg
乾燥質量 248.00 kg
総質量 260.00 kg
長さ 0.20 m
直径 2.80 m
スパン 9.00 m
形状 Box + pan
製造者 SPXS
バスタイプ Starlink
フェーズステータス In Orbit
所有者/国 SPXS/US

Most Searched